Location: Miss�
(46.9484°N, 0.1922°W)
Time: 22:47:03
(UTC+00:00)

Okean 3 - Pass Details

Date: 02 March 2021
Orbit: 576 x 600 km, 82.5° (Epoch: 20 April)

Event Time Altitude Azimuth Distance (km) Brightness Sun altitude
Rises 20:04:54 0° 350° (N) 2,831 7.3 -24.0°
Reaches altitude 10° 20:07:06 10° 350° (N) 1,929 6.4 -24.3°
Enters shadow 20:10:47 66° 344° (NNW) 653 3.7 -24.9°
